This is the latest recevied weather packets stored in our database for station/object WV6L-13. If no packets are shown the sender has not sent any weather packets the latest 10 day(s).
| Time | Temp. | Humidity | Pressure | Rain* | Wind** | Luminosity | Snow |
|---|---|---|---|---|---|---|---|
| 1777581295 | 26.67° C | 18% | 923.2 hPa | - | - | - | - |
| 1777580695 | 26.11° C | 18% | 923.3 hPa | - | - | - | - |
| 1777580395 | 26.67° C | 18% | 923.4 hPa | - | - | - | - |
| 1777580096 | 26.11° C | 18% | 923.5 hPa | - | - | - | - |
| 1777579796 | 26.11° C | 18% | 923.6 hPa | - | - | - | - |
| 1777579195 | 26.11° C | 19% | 923.6 hPa | - | - | - | - |
| 1777578596 | 26.11° C | 18% | 923.8 hPa | - | - | - | - |
| 1777577695 | 27.22° C | 18% | 923.9 hPa | - | - | - | - |
| 1777577095 | 25.56° C | 18% | 923.9 hPa | - | - | - | - |
| 1777576796 | 25.56° C | 19% | 924.1 hPa | - | - | - | - |
| 1777576496 | 26.67° C | 18% | 924.2 hPa | - | - | - | - |
| 1777576195 | 26.11° C | 18% | 924.3 hPa | - | - | - | - |
| 1777575596 | 25.56° C | 19% | 924.4 hPa | - | - | - | - |
| 1777575296 | 25.56° C | 18% | 924.4 hPa | - | - | - | - |
| 1777573196 | 25° C | 20% | 924.9 hPa | - | - | - | - |
| 1777572296 | 24.44° C | 20% | 924.8 hPa | - | - | - | - |
| 1777571695 | 25° C | 20% | 925.2 hPa | - | - | - | - |
| 1777571096 | 25° C | 20% | 925.2 hPa | - | - | - | - |
| 1777570195 | 23.33° C | 21% | 925.3 hPa | - | - | - | - |
| 1777569595 | 23.33° C | 20% | 925.3 hPa | - | - | - | - |
| 1777568996 | 23.89° C | 21% | 925.5 hPa | - | - | - | - |
| 1777568395 | 22.78° C | 22% | 925.2 hPa | - | - | - | - |
| 1777566896 | 21.11° C | 23% | 925.6 hPa | - | - | - | - |
| 1777566595 | 21.11° C | 23% | 925.4 hPa | - | - | - | - |
| 1777565695 | 20° C | 24% | 925.5 hPa | - | - | - | - |
* Rain since midnight (hover to see other rain measurements)
** Current wind speed in m/s (hover to see current wind gust speed)